Tracking 35237 objects as of 6-Sep-2026
HD Live streaming from Space Station
objects crossing your sky now

COSMOS 1408 DEB


COSMOS 1408 DEB is no longer on orbit


NORAD ID: 49893
Int'l Code: 1982-092NC
Launch date: September 16, 1982
Source: Commonwealth of Independent States (former USSR) (CIS)
Launch site: PLESETSK MISSILE AND SPACE COMPLEX (PKMTR)
Decay date: 2022-07-14

Note: This is SATELLITE DEBRIS
Your satellite tracking list
Your tracking list is empty




NASA's NSSDC Master Catalog

Two Line Element Set (TLE):
1 49893U 82092NC  22195.02072921  .10997680 -12672-5  10746-2 0  9990
2 49893  82.6345 236.0867 0011614 262.2970  97.7010 16.38178171 36923
Source of the keplerian elements: AFSPC